Location: Centerville
(32.8776°N, 96.6203°W)
Time: 11:53:06
(UTC+00:00)

ERS-2 - Pass Details

Date: 17 June 2021
Orbit: 492 x 495 km, 98.5° (Epoch: 30 July)

Event Time Altitude Azimuth Distance (km) Brightness Sun altitude
Rises 02:14:14 0° 12° (NNE) 2,583 6.1 -7.5°
Reaches altitude 10° 02:16:18 10° 12° (NNE) 1,697 5.1 -7.9°
Maximum altitude 02:19:57 88° 289° (WNW) 501 2.1 -8.5°
Drops below altitude 10° 02:23:35 10° 194° (SSW) 1,686 4.6 -9.1°
Sets 02:25:39 0° 194° (SSW) 2,565 5.5 -9.5°
